Time,TemperatureF,DewpointF,PressureIn,WindDirection,WindDirectionDegrees,WindSpeedMPH,WindSpeedGustMPH,Humidity,HourlyPrecipIn,Conditions,Clouds,dailyrainin,SoftwareType,DateUTC
2013-01-31 09:56:00,48.7,33.7,29.49,NW,315,7.1,7.1,56,0.00,,---,0.00,VWS V13.00,2013-01-31 14:56:00,
2013-01-31 10:01:00,48.7,34.2,29.49,WNW,292,7.1,8.2,57,0.00,,---,0.00,VWS V13.00,2013-01-31 15:01:00,
2013-01-31 10:06:00,48.9,34.8,29.49,NNW,338,4.0,7.1,58,0.00,,---,0.00,VWS V13.00,2013-01-31 15:06:00,
2013-01-31 10:11:00,49.2,33.7,29.50,NNW,338,9.3,9.3,55,0.00,,---,0.00,VWS V13.00,2013-01-31 15:11:00,
2013-01-31 10:16:00,49.1,33.7,29.50,ENE,68,15.2,15.2,55,0.00,,---,0.00,VWS V13.00,2013-01-31 15:16:00,
2013-01-31 10:21:00,49.2,33.3,29.51,West,270,5.5,15.2,54,0.00,,---,0.00,VWS V13.00,2013-01-31 15:21:00,
2013-01-31 10:26:00,49.1,33.2,29.51,WNW,292,0.0,10.2,54,0.00,,---,0.00,VWS V13.00,2013-01-31 15:26:00,
2013-01-31 10:31:00,49.2,33.7,29.51,NW,315,7.1,10.2,55,0.00,,---,0.00,VWS V13.00,2013-01-31 15:31:00,
2013-01-31 10:36:00,49.2,33.3,29.51,WNW,292,12.7,20.3,54,0.00,,---,0.00,VWS V13.00,2013-01-31 15:36:00,
2013-01-31 10:41:00,49.6,33.7,29.51,West,270,2.9,20.3,54,0.00,,---,0.00,VWS V13.00,2013-01-31 15:41:00,
2013-01-31 10:46:00,49.6,32.7,29.52,North,0,4.9,12.7,52,0.00,,---,0.00,VWS V13.00,2013-01-31 15:46:00,
2013-01-31 10:51:00,49.6,32.7,29.52,NNW,338,7.3,12.7,52,0.00,,---,0.00,VWS V13.00,2013-01-31 15:51:00,
2013-01-31 10:56:00,49.2,31.9,29.52,West,270,6.4,12.7,51,0.00,,---,0.00,VWS V13.00,2013-01-31 15:56:00,
2013-01-31 11:01:00,49.6,32.7,29.52,NNW,338,6.0,12.7,52,0.00,,---,0.00,VWS V13.00,2013-01-31 16:01:00,
2013-01-31 11:06:00,49.6,32.7,29.52,NW,315,10.5,11.1,52,0.00,,---,0.00,VWS V13.00,2013-01-31 16:06:00,
2013-01-31 11:10:00,33.6,17.4,29.86,North,0,17.9,17.9,51,0.00,,---,0.00,VWS V13.00,2013-01-31 16:10:00,
2013-01-31 11:11:00,49.6,32.7,29.53,NNW,338,6.9,12.3,52,0.00,,---,0.00,VWS V13.00,2013-01-31 16:11:00,
2013-01-31 11:16:00,49.6,32.7,29.53,NNW,338,2.9,12.3,52,0.00,,---,0.00,VWS V13.00,2013-01-31 16:16:00,
2013-01-31 11:21:00,49.8,32.9,29.53,SSW,202,0.0,0.0,52,0.00,,---,0.00,VWS V13.00,2013-01-31 16:21:00,
2013-01-31 11:26:00,49.8,32.9,29.53,WNW,292,11.8,11.8,52,0.00,,---,0.00,VWS V13.00,2013-01-31 16:26:00,
2013-01-31 11:31:00,50.1,32.7,29.53,NW,315,7.8,11.8,51,0.00,,---,0.00,VWS V13.00,2013-01-31 16:31:00,
2013-01-31 11:36:00,50.1,32.2,29.53,WNW,292,1.7,11.8,50,0.00,,---,0.00,VWS V13.00,2013-01-31 16:36:00,
2013-01-31 11:41:00,50.3,31.9,29.54,WNW,292,13.6,13.6,49,0.00,,---,0.00,VWS V13.00,2013-01-31 16:41:00,
2013-01-31 11:46:00,50.3,32.4,29.54,South,180,0.0,13.6,50,0.00,,---,0.00,VWS V13.00,2013-01-31 16:46:00,
2013-01-31 11:51:00,50.5,32.1,29.54,WSW,248,4.6,13.6,49,0.00,,---,0.00,VWS V13.00,2013-01-31 16:51:00,
2013-01-31 11:56:00,50.3,31.9,29.54,West,270,12.5,13.6,49,0.00,,---,0.00,VWS V13.00,2013-01-31 16:56:00,
2013-01-31 12:01:00,50.5,32.1,29.54,NNE,22,10.2,10.2,49,0.00,,---,0.00,VWS V13.00,2013-01-31 17:01:00,
2013-01-31 12:06:00,50.7,32.8,29.54,NNW,338,4.0,10.2,50,0.00,,---,0.00,VWS V13.00,2013-01-31 17:06:00,
2013-01-31 12:11:00,50.7,31.7,29.54,WNW,292,6.2,11.1,48,0.00,,---,0.00,VWS V13.00,2013-01-31 17:11:00,
2013-01-31 12:16:00,50.7,31.2,29.54,WNW,292,3.1,11.1,47,0.00,,---,0.00,VWS V13.00,2013-01-31 17:16:00,
2013-01-31 12:21:00,50.7,31.7,29.54,SSW,202,0.0,0.0,48,0.00,,---,0.00,VWS V13.00,2013-01-31 17:21:00,
2013-01-31 12:26:00,50.9,31.9,29.54,NW,315,4.4,6.7,48,0.00,,---,0.00,VWS V13.00,2013-01-31 17:26:00,
2013-01-31 12:31:00,50.9,31.9,29.54,West,270,4.9,12.7,48,0.00,,---,0.00,VWS V13.00,2013-01-31 17:31:00,
2013-01-31 12:36:00,50.9,31.9,29.54,West,270,4.9,14.3,48,0.00,,---,0.00,VWS V13.00,2013-01-31 17:36:00,
2013-01-31 12:41:00,51.2,32.2,29.55,NW,315,11.8,11.8,48,0.00,,---,0.00,VWS V13.00,2013-01-31 17:41:00,
2013-01-31 12:46:00,51.6,32.6,29.55,SW,225,6.7,11.8,48,0.00,,---,0.00,VWS V13.00,2013-01-31 17:46:00,
2013-01-31 12:51:00,51.6,32.0,29.55,WNW,292,18.1,18.1,47,0.00,,---,0.00,VWS V13.00,2013-01-31 17:51:00,
2013-01-31 12:56:00,51.4,31.9,29.56,NNW,338,12.7,18.1,47,0.00,,---,0.00,VWS V13.00,2013-01-31 17:56:00,
2013-01-31 13:01:00,51.4,32.4,29.56,WNW,292,6.4,6.4,48,0.00,,---,0.00,VWS V13.00,2013-01-31 18:01:00,
2013-01-31 13:06:00,51.2,31.7,29.55,NW,315,12.0,12.0,47,0.00,,---,0.00,VWS V13.00,2013-01-31 18:06:00,
2013-01-31 13:11:00,51.2,31.7,29.56,NW,315,10.5,12.0,47,0.00,,---,0.00,VWS V13.00,2013-01-31 18:11:00,
2013-01-31 13:16:00,51.0,31.5,29.56,West,270,7.6,12.0,47,0.00,,---,0.00,VWS V13.00,2013-01-31 18:16:00,
2013-01-31 13:21:00,50.9,31.4,29.56,South,180,4.9,4.9,47,0.00,,---,0.00,VWS V13.00,2013-01-31 18:21:00,
2013-01-31 13:26:00,51.0,31.5,29.57,NNE,22,5.8,5.8,47,0.00,,---,0.00,VWS V13.00,2013-01-31 18:26:00,
2013-01-31 13:31:00,51.0,31.0,29.57,WNW,292,14.0,24.6,46,0.00,,---,0.00,VWS V13.00,2013-01-31 18:31:00,
2013-01-31 13:36:00,50.9,30.9,29.57,West,270,5.1,24.6,46,0.00,,---,0.00,VWS V13.00,2013-01-31 18:36:00,
2013-01-31 13:41:00,50.5,30.0,29.57,West,270,2.4,24.6,45,0.00,,---,0.00,VWS V13.00,2013-01-31 18:41:00,
2013-01-31 13:46:00,50.1,29.6,29.57,ENE,68,5.1,5.8,45,0.00,,---,0.00,VWS V13.00,2013-01-31 18:46:00,
2013-01-31 13:51:00,50.1,29.0,29.57,East,90,4.9,5.8,44,0.00,,---,0.00,VWS V13.00,2013-01-31 18:51:00,
2013-01-31 13:56:00,50.1,29.0,29.58,NNW,338,7.3,7.3,44,0.00,,---,0.00,VWS V13.00,2013-01-31 18:56:00,
2013-01-31 14:01:00,50.1,29.0,29.58,NNW,338,13.4,13.4,44,0.00,,---,0.00,VWS V13.00,2013-01-31 19:01:00,
2013-01-31 14:06:00,49.8,29.3,29.58,NE,45,0.0,13.4,45,0.00,,---,0.00,VWS V13.00,2013-01-31 19:06:00,
2013-01-31 14:11:00,49.8,28.2,29.58,SSW,202,1.7,13.4,43,0.00,,---,0.00,VWS V13.00,2013-01-31 19:11:00,
2013-01-31 14:16:00,49.8,28.8,29.58,WNW,292,17.2,17.2,44,0.00,,---,0.00,VWS V13.00,2013-01-31 19:16:00,
2013-01-31 14:21:00,49.8,28.8,29.58,West,270,6.9,17.2,44,0.00,,---,0.00,VWS V13.00,2013-01-31 19:21:00,
2013-01-31 14:26:00,49.8,28.8,29.58,SE,135,2.9,6.9,44,0.00,,---,0.00,VWS V13.00,2013-01-31 19:26:00,
2013-01-31 14:31:00,49.6,28.0,29.58,West,270,10.7,10.7,43,0.00,,---,0.00,VWS V13.00,2013-01-31 19:31:00,
2013-01-31 14:36:00,49.4,27.3,29.59,West,270,13.4,13.4,42,0.00,,---,0.00,VWS V13.00,2013-01-31 19:36:00,
2013-01-31 14:41:00,49.2,27.7,29.59,WNW,292,7.3,13.4,43,0.00,,---,0.00,VWS V13.00,2013-01-31 19:41:00,
2013-01-31 14:46:00,49.2,27.7,29.59,NW,315,1.1,7.3,43,0.00,,---,0.00,VWS V13.00,2013-01-31 19:46:00,
2013-01-31 14:51:00,49.2,27.7,29.60,SSW,202,8.7,8.7,43,0.00,,---,0.00,VWS V13.00,2013-01-31 19:51:00,
2013-01-31 14:56:00,49.1,27.6,29.60,North,0,7.6,8.7,43,0.00,,---,0.00,VWS V13.00,2013-01-31 19:56:00,
2013-01-31 15:01:00,49.1,28.1,29.60,North,0,21.6,21.6,44,0.00,,---,0.00,VWS V13.00,2013-01-31 20:01:00,
2013-01-31 15:06:00,48.9,28.0,29.60,NNW,338,15.6,21.6,44,0.00,,---,0.00,VWS V13.00,2013-01-31 20:06:00,
2013-01-31 15:11:00,48.7,27.8,29.60,WNW,292,5.1,21.6,44,0.00,,---,0.00,VWS V13.00,2013-01-31 20:11:00,
2013-01-31 15:16:00,48.9,28.0,29.61,West,270,5.8,21.6,44,0.00,,---,0.00,VWS V13.00,2013-01-31 20:16:00,
2013-01-31 15:21:00,48.9,28.0,29.61,North,0,14.5,21.6,44,0.00,,---,0.00,VWS V13.00,2013-01-31 20:21:00,
2013-01-31 15:26:00,48.9,28.0,29.61,North,0,0.2,6.2,44,0.00,,---,0.00,VWS V13.00,2013-01-31 20:26:00,
2013-01-31 15:31:00,48.7,27.8,29.62,West,270,15.4,15.4,44,0.00,,---,0.00,VWS V13.00,2013-01-31 20:31:00,
2013-01-31 15:36:00,48.3,26.9,29.62,WSW,248,15.4,15.4,43,0.00,,---,0.00,VWS V13.00,2013-01-31 20:36:00,
2013-01-31 15:41:00,48.0,26.0,29.63,NNW,338,6.7,15.4,42,0.00,,---,0.00,VWS V13.00,2013-01-31 20:41:00,
2013-01-31 15:46:00,47.8,26.4,29.63,West,270,6.9,6.9,43,0.00,,---,0.00,VWS V13.00,2013-01-31 20:46:00,
2013-01-31 15:51:00,47.8,26.4,29.63,NW,315,12.7,12.7,43,0.00,,---,0.00,VWS V13.00,2013-01-31 20:51:00,
2013-01-31 15:56:00,47.6,26.8,29.64,SW,225,1.5,12.7,44,0.00,,---,0.00,VWS V13.00,2013-01-31 20:56:00,
2013-01-31 16:01:00,47.4,26.0,29.64,NW,315,11.4,12.7,43,0.00,,---,0.00,VWS V13.00,2013-01-31 21:01:00,
2013-01-31 16:06:00,47.1,26.3,29.64,SE,135,4.6,11.4,44,0.00,,---,0.00,VWS V13.00,2013-01-31 21:06:00,
2013-01-31 16:11:00,47.1,26.3,29.64,WNW,292,10.7,11.4,44,0.00,,---,0.00,VWS V13.00,2013-01-31 21:11:00,
2013-01-31 16:16:00,46.7,26.0,29.65,NW,315,5.3,11.4,44,0.00,,---,0.00,VWS V13.00,2013-01-31 21:16:00,
2013-01-31 16:21:00,46.4,25.7,29.65,NNE,22,9.1,11.4,44,0.00,,---,0.00,VWS V13.00,2013-01-31 21:21:00,
2013-01-31 16:26:00,46.0,25.3,29.66,WNW,292,2.0,13.4,44,0.00,,---,0.00,VWS V13.00,2013-01-31 21:26:00,
2013-01-31 16:31:00,45.6,25.0,29.67,NE,45,3.8,13.4,44,0.00,,---,0.00,VWS V13.00,2013-01-31 21:31:00,
2013-01-31 16:36:00,45.1,24.5,29.67,NNE,22,7.8,13.4,44,0.00,,---,0.00,VWS V13.00,2013-01-31 21:36:00,
2013-01-31 16:41:00,44.9,24.3,29.67,North,0,3.1,13.4,44,0.00,,---,0.00,VWS V13.00,2013-01-31 21:41:00,
2013-01-31 16:46:00,44.7,24.7,29.67,NNW,338,6.2,6.2,45,0.00,,---,0.00,VWS V13.00,2013-01-31 21:46:00,
2013-01-31 16:51:00,44.4,24.4,29.67,North,0,1.3,7.3,45,0.00,,---,0.00,VWS V13.00,2013-01-31 21:51:00,
2013-01-31 16:56:00,44.0,24.0,29.68,NNE,22,4.9,7.3,45,0.00,,---,0.00,VWS V13.00,2013-01-31 21:56:00,
2013-01-31 17:01:00,43.8,23.9,29.68,West,270,0.0,7.3,45,0.00,,---,0.00,VWS V13.00,2013-01-31 22:01:00,
2013-01-31 17:06:00,43.5,24.1,29.69,NNW,338,7.3,10.5,46,0.00,,---,0.00,VWS V13.00,2013-01-31 22:06:00,
2013-01-31 17:11:00,43.1,23.7,29.69,NNW,338,6.7,10.5,46,0.00,,---,0.00,VWS V13.00,2013-01-31 22:11:00,
2013-01-31 17:16:00,42.6,23.8,29.69,West,270,3.3,10.5,47,0.00,,---,0.00,VWS V13.00,2013-01-31 22:16:00,
2013-01-31 17:21:00,42.4,23.6,29.70,NNW,338,4.0,10.5,47,0.00,,---,0.00,VWS V13.00,2013-01-31 22:21:00,
2013-01-31 17:26:00,41.9,23.7,29.71,NW,315,4.0,4.2,48,0.00,,---,0.00,VWS V13.00,2013-01-31 22:26:00,
2013-01-31 17:31:00,41.7,23.5,29.71,NW,315,5.3,5.3,48,0.00,,---,0.00,VWS V13.00,2013-01-31 22:31:00,
2013-01-31 17:36:00,41.5,23.3,29.72,North,0,5.8,5.8,48,0.00,,---,0.00,VWS V13.00,2013-01-31 22:36:00,
2013-01-31 17:41:00,41.1,22.4,29.72,NNE,22,6.7,17.2,47,0.00,,---,0.00,VWS V13.00,2013-01-31 22:41:00,
2013-01-31 17:46:00,40.8,21.1,29.73,NW,315,0.0,6.7,45,0.00,,---,0.00,VWS V13.00,2013-01-31 22:46:00,
2013-01-31 17:51:00,40.6,21.5,29.72,WNW,292,3.5,12.7,46,0.00,,---,0.00,VWS V13.00,2013-01-31 22:51:00,
2013-01-31 17:56:00,40.2,20.6,29.73,East,90,0.0,12.7,45,0.00,,---,0.00,VWS V13.00,2013-01-31 22:56:00,
2013-01-31 18:01:00,40.1,21.0,29.73,NNW,338,9.8,12.7,46,0.00,,---,0.00,VWS V13.00,2013-01-31 23:01:00,
2013-01-31 18:06:00,39.9,20.8,29.74,North,0,12.3,12.3,46,0.00,,---,0.00,VWS V13.00,2013-01-31 23:06:00,
2013-01-31 18:11:00,39.5,20.5,29.74,NNW,338,7.3,12.3,46,0.00,,---,0.00,VWS V13.00,2013-01-31 23:11:00,
2013-01-31 18:16:00,39.3,20.8,29.74,NNW,338,5.1,12.3,47,0.00,,---,0.00,VWS V13.00,2013-01-31 23:16:00,
2013-01-31 18:21:00,39.3,20.3,29.75,NW,315,2.4,12.3,46,0.00,,---,0.00,VWS V13.00,2013-01-31 23:21:00,
2013-01-31 18:26:00,39.0,20.5,29.75,NW,315,3.3,3.3,47,0.00,,---,0.00,VWS V13.00,2013-01-31 23:26:00,
2013-01-31 18:31:00,39.0,20.5,29.76,SSW,202,1.3,5.3,47,0.00,,---,0.00,VWS V13.00,2013-01-31 23:31:00,
2013-01-31 18:36:00,38.8,20.3,29.76,WSW,248,2.4,5.3,47,0.00,,---,0.00,VWS V13.00,2013-01-31 23:36:00,
2013-01-31 18:41:00,38.4,19.9,29.77,WSW,248,3.3,6.9,47,0.00,,---,0.00,VWS V13.00,2013-01-31 23:41:00,
2013-01-31 18:46:00,38.4,19.9,29.77,East,90,5.5,6.7,47,0.00,,---,0.00,VWS V13.00,2013-01-31 23:46:00,
2013-01-31 18:51:00,38.3,20.4,29.77,West,270,3.1,6.7,48,0.00,,---,0.00,VWS V13.00,2013-01-31 23:51:00,
2013-01-31 18:56:00,38.1,20.2,29.77,NW,315,2.9,8.0,48,0.00,,---,0.00,VWS V13.00,2013-01-31 23:56:00,
2013-01-31 19:01:00,38.1,20.2,29.78,SW,225,2.9,8.0,48,0.00,,---,0.00,VWS V13.00,2013-02-01 00:01:00,
2013-01-31 19:06:00,37.9,20.5,29.77,WSW,248,0.0,6.9,49,0.00,,---,0.00,VWS V13.00,2013-02-01 00:06:00,
2013-01-31 19:11:00,37.7,19.8,29.77,NNE,22,0.0,6.9,48,0.00,,---,0.00,VWS V13.00,2013-02-01 00:11:00,
2013-01-31 19:16:00,37.7,19.8,29.78,South,180,2.0,7.8,48,0.00,,---,0.00,VWS V13.00,2013-02-01 00:16:00,
2013-01-31 19:21:00,37.5,19.6,29.78,SW,225,6.4,8.2,48,0.00,,---,0.00,VWS V13.00,2013-02-01 00:21:00,
2013-01-31 19:26:00,37.5,19.6,29.78,NW,315,5.1,6.4,48,0.00,,---,0.00,VWS V13.00,2013-02-01 00:26:00,
2013-01-31 19:31:00,37.4,19.5,29.78,North,0,5.3,12.0,48,0.00,,---,0.00,VWS V13.00,2013-02-01 00:31:00,
2013-01-31 19:36:00,37.2,19.3,29.78,North,0,0.6,12.0,48,0.00,,---,0.00,VWS V13.00,2013-02-01 00:36:00,
2013-01-31 19:41:00,37.2,19.3,29.79,North,0,0.0,12.0,48,0.00,,---,0.00,VWS V13.00,2013-02-01 00:41:00,
2013-01-31 19:46:00,37.2,19.3,29.79,WNW,292,1.5,7.1,48,0.00,,---,0.00,VWS V13.00,2013-02-01 00:46:00,
2013-01-31 19:51:00,37.0,19.1,29.79,NW,315,4.4,7.1,48,0.00,,---,0.00,VWS V13.00,2013-02-01 00:51:00,
2013-01-31 19:56:00,36.8,19.0,29.80,West,270,8.5,8.5,48,0.00,,---,0.00,VWS V13.00,2013-02-01 00:56:00,
2013-01-31 20:01:00,36.6,19.3,29.80,West,270,10.5,10.5,49,0.00,,---,0.00,VWS V13.00,2013-02-01 01:01:00,
2013-01-31 20:06:00,36.6,19.3,29.80,South,180,4.0,4.0,49,0.00,,---,0.00,VWS V13.00,2013-02-01 01:06:00,
2013-01-31 20:11:00,36.5,19.2,29.80,North,0,7.6,8.0,49,0.00,,---,0.00,VWS V13.00,2013-02-01 01:11:00,
2013-01-31 20:16:00,36.3,19.0,29.80,WNW,292,6.9,8.0,49,0.00,,---,0.00,VWS V13.00,2013-02-01 01:16:00,
2013-01-31 20:21:00,36.3,19.5,29.80,WSW,248,2.2,8.0,50,0.00,,---,0.00,VWS V13.00,2013-02-01 01:21:00,
2013-01-31 20:26:00,36.1,19.3,29.80,NNW,338,5.5,5.5,50,0.00,,---,0.00,VWS V13.00,2013-02-01 01:26:00,
2013-01-31 20:31:00,35.9,19.1,29.80,NNE,22,5.5,5.5,50,0.00,,---,0.00,VWS V13.00,2013-02-01 01:31:00,
2013-01-31 20:36:00,35.9,19.1,29.80,NNW,338,5.3,5.5,50,0.00,,---,0.00,VWS V13.00,2013-02-01 01:36:00,
2013-01-31 20:41:00,35.7,18.4,29.82,NNW,338,3.3,6.9,49,0.00,,---,0.00,VWS V13.00,2013-02-01 01:41:00,
2013-01-31 20:46:00,35.7,18.4,29.81,NNW,338,1.7,3.3,49,0.00,,---,0.00,VWS V13.00,2013-02-01 01:46:00,
2013-01-31 20:51:00,35.7,18.4,29.82,WNW,292,11.4,11.4,49,0.00,,---,0.00,VWS V13.00,2013-02-01 01:51:00,
2013-01-31 20:56:00,35.4,18.1,29.82,North,0,4.6,18.5,49,0.00,,---,0.00,VWS V13.00,2013-02-01 01:56:00,
2013-01-31 21:01:00,35.4,18.1,29.82,West,270,9.3,18.5,49,0.00,,---,0.00,VWS V13.00,2013-02-01 02:01:00,
2013-01-31 21:06:00,35.4,18.1,29.82,NE,45,3.1,3.1,49,0.00,,---,0.00,VWS V13.00,2013-02-01 02:06:00,
2013-01-31 22:26:00,32.9,15.4,29.86,NNW,338,12.3,17.9,48,0.00,,---,0.00,VWS V13.00,2013-02-01 03:26:00,
2013-01-31 22:31:00,32.7,15.2,29.86,WSW,248,12.7,17.9,48,0.00,,---,0.00,VWS V13.00,2013-02-01 03:31:00,
2013-01-31 22:36:00,32.7,15.2,29.87,NNW,338,8.0,17.9,48,0.00,,---,0.00,VWS V13.00,2013-02-01 03:36:00,
2013-01-31 22:41:00,32.5,14.5,29.88,NW,315,7.8,17.9,47,0.00,,---,0.00,VWS V13.00,2013-02-01 03:41:00,
2013-01-31 22:46:00,32.3,14.8,29.87,North,0,2.9,9.6,48,0.00,,---,0.00,VWS V13.00,2013-02-01 03:46:00,
2013-01-31 22:51:00,32.3,14.8,29.88,South,180,0.0,9.6,48,0.00,,---,0.00,VWS V13.00,2013-02-01 03:51:00,
2013-01-31 22:56:00,32.1,14.6,29.88,NNW,338,0.0,9.6,48,0.00,,---,0.00,VWS V13.00,2013-02-01 03:56:00,
2013-01-31 23:01:00,32.1,14.6,29.88,South,180,2.4,9.6,48,0.00,,---,0.00,VWS V13.00,2013-02-01 04:01:00,
2013-01-31 23:06:00,32.1,14.2,29.88,SSE,158,3.8,6.9,47,0.00,,---,0.00,VWS V13.00,2013-02-01 04:06:00,
2013-01-31 23:11:00,32.1,14.2,29.88,SSE,158,3.8,6.9,47,0.00,,---,0.00,VWS V13.00,2013-02-01 04:11:00,
2013-01-31 23:16:00,32.1,14.2,29.88,SSE,158,3.8,6.9,47,0.00,,---,0.00,VWS V13.00,2013-02-01 04:16:00,
2013-01-31 23:21:00,32.1,14.2,29.88,SSE,158,3.8,6.9,47,0.00,,---,0.00,VWS V13.00,2013-02-01 04:21:00,
2013-01-31 23:26:00,32.1,14.2,29.88,SSE,158,3.8,6.9,47,0.00,,---,0.00,VWS V13.00,2013-02-01 04:26:00,
2013-01-31 23:31:00,32.1,14.2,29.88,SSE,158,3.8,6.9,47,0.00,,---,0.00,VWS V13.00,2013-02-01 04:31:00,
2013-01-31 23:36:00,32.1,14.2,29.88,SSE,158,3.8,6.9,47,0.00,,---,0.00,VWS V13.00,2013-02-01 04:36:00,
2013-01-31 23:41:00,32.1,14.2,29.88,SSE,158,3.8,6.9,47,0.00,,---,0.00,VWS V13.00,2013-02-01 04:41:00,
2013-01-31 23:46:00,32.1,14.2,29.88,SSE,158,3.8,6.9,47,0.00,,---,0.00,VWS V13.00,2013-02-01 04:46:00,
2013-01-31 23:51:00,32.1,14.2,29.88,SSE,158,3.8,6.9,47,0.00,,---,0.00,VWS V13.00,2013-02-01 04:51:00,
2013-01-31 23:56:00,32.1,14.2,29.88,SSE,158,3.8,6.9,47,0.00,,---,0.00,VWS V13.00,2013-02-01 04:56:00,